FW7203 Weather Reports


time (UTC)temp
F
wind
direction
speed
knots
gust
knots
rain 1hr
in
rain 24hr
in
rain mn
in
humidity
%
barometer
mb
20260506213046 81 131 6.1 10.4 0.00 0.00 0.00 89 1009.4
20260506212529 81 202 5.2 10.4 0.00 0.00 0.00 89 1009.4
20260506212029 81 175 4.3 8.7 0.00 0.00 0.00 88 1009.4
20260506211542 82 148 3.5 7.0 0.00 0.00 0.00 89 1009.5
20260506211029 82 154 4.3 8.7 0.00 0.00 0.00 88 1009.4
20260506210529 82 150 3.5 8.7 0.00 0.00 0.00 88 1009.5
20260506210050 82 165 2.6 6.1 0.00 0.00 0.00 88 1009.5
20260506205533 82 149 2.6 7.8 0.00 0.00 0.00 89 1009.4
20260506205028 82 157 4.3 7.8 0.00 0.00 0.00 88 1009.5
20260506204543 82 155 4.3 8.7 0.00 0.00 0.00 88 1009.4
20260506204028 82 135 4.3 8.7 0.00 0.00 0.00 88 1009.5
20260506203531 82 164 5.2 8.7 0.00 0.00 0.00 88 1009.6
20260506203043 82 155 4.3 8.7 0.00 0.00 0.00 88 1009.7
20260506202529 82 186 3.5 7.8 0.00 0.00 0.00 89 1009.6
20260506202029 82 144 3.5 10.4 0.00 0.00 0.00 89 1009.8
20260506201542 81 155 4.3 10.4 0.00 0.00 0.00 90 1009.9
20260506201027 81 200 5.2 8.7 0.00 0.00 0.00 89 1009.9
20260506200526 81 154 2.6 7.8 0.00 0.00 0.00 90 1010.1
20260506200046 81 159 3.5 6.1 0.00 0.00 0.00 90 1010.2
20260506195529 81 162 2.6 6.1 0.00 0.00 0.00 90 1010.2
20260506195029 81 159 2.6 6.1 0.00 0.00 0.00 90 1010.2
20260506194557 81 164 2.6 7.0 0.00 0.00 0.00 90 1010.3
20260506194030 81 160 3.5 7.8 0.00 0.00 0.00 90 1010.3
20260506193525 81 172 4.3 8.7 0.00 0.00 0.00 91 1010.3
20260506193044 81 156 4.3 8.7 0.00 0.00 0.00 90 1010.4
20260506192529 80 148 3.5 8.7 0.00 0.00 0.00 91 1010.5
20260506192031 80 157 4.3 8.7 0.00 0.00 0.00 92 1010.4
20260506191545 80 171 4.3 7.0 0.00 0.00 0.00 92 1010.6
20260506191030 80 119 2.6 6.1 0.00 0.00 0.00 92 1010.6
20260506190529 80 159 3.5 5.2 0.00 0.00 0.00 92 1010.6
20260506190052 80 153 3.5 6.1 0.00 0.00 0.00 92 1010.7
20260506185530 80 154 2.6 6.1 0.00 0.00 0.00 91 1010.7
20260506185026 80 142 2.6 5.2 0.00 0.00 0.00 91 1010.8
20260506184550 80 146 1.7 5.2 0.00 0.00 0.00 91 1010.8
20260506184026 80 143 2.6 5.2 0.00 0.00 0.00 91 1010.7
20260506183526 80 150 2.6 6.1 0.00 0.00 0.00 91 1010.8
20260506183041 80 157 3.5 6.1 0.00 0.00 0.00 91 1010.7
20260506182525 80 160 2.6 9.6 0.00 0.00 0.00 91 1010.8
20260506182029 81 198 2.6 9.6 0.00 0.00 0.00 91 1011.0
20260506181540 81 165 1.7 6.1 0.00 0.00 0.00 91 1010.9
20260506181029 81 157 0.9 7.8 0.00 0.00 0.00 91 1011.1
20260506180529 80 156 3.5 7.8 0.00 0.00 0.00 91 1011.1
20260506180046 80 165 2.6 7.8 0.00 0.00 0.00 92 1011.0
20260506175526 80 165 2.6 7.8 0.00 0.00 0.00 91 1011.0
20260506175028 80 142 3.5 7.0 0.00 0.00 0.00 91 1011.1
20260506174540 80 142 3.5 7.8 0.00 0.00 0.00 91 1011.2
20260506174028 80 140 3.5 7.8 0.00 0.00 0.00 91 1011.3
20260506173529 80 165 3.5 7.8 0.00 0.00 0.00 91 1011.2
20260506173108 80 171 2.6 8.7 0.00 0.00 0.00 91 1011.3
20260506172528 80 166 3.5 8.7 0.00 0.00 0.00 90 1011.2
20260506172026 81 167 3.5 8.7 0.00 0.00 0.00 90 1011.4
20260506171547 81 153 3.5 7.8 0.00 0.00 0.00 90 1011.5
20260506171029 81 162 2.6 7.8 0.00 0.00 0.00 92 1011.6
20260506170525 82 169 1.7 8.7 0.00 0.00 0.00 92 1011.5
20260506170047 81 172 1.7 8.7 0.00 0.00 0.00 92 1011.4
20260506165526 80 156 3.5 7.0 0.00 0.00 0.00 91 1011.5
20260506165026 80 142 3.5 7.0 0.00 0.00 0.00 92 1011.4
20260506164555 80 162 1.7 6.1 0.00 0.00 0.00 92 1011.5
20260506164027 80 157 2.6 7.8 0.00 0.00 0.00 92 1011.4
20260506163532 80 140 3.5 7.8 0.00 0.00 0.00 92 1011.3
20260506163047 80 161 3.5 10.4 0.00 0.00 0.00 93 1011.4
20260506162526 80 144 5.2 10.4 0.00 0.00 0.00 93 1011.4
20260506162033 80 153 3.5 7.8 0.00 0.00 0.00 93 1011.2
20260506161541 79 164 4.3 8.7 0.00 0.00 0.00 93 1011.3
20260506161025 79 169 1.7 9.6 0.00 0.00 0.00 93 1011.3
20260506160528 79 182 4.3 9.6 0.00 0.00 0.00 93 1011.4
20260506160049 79 190 3.5 9.6 0.00 0.00 0.00 94 1011.2
20260506155528 79 155 0.9 7.8 0.00 0.00 0.00 95 1011.2
20260506155026 79 147 2.6 7.8 0.00 0.00 0.00 95 1011.0
20260506154552 79 154 0.9 5.2 0.00 0.00 0.00 96 1010.8
20260506154026 78 157 2.6 5.2 0.00 0.00 0.00 96 1010.8
20260506153528 78 159 2.6 5.2 0.00 0.00 0.00 96 1010.9
20260506153047 78 157 1.7 4.3 0.00 0.00 0.00 97 1010.9
20260506152528 78 159 0.9 3.5 0.00 0.00 0.00 97 1010.8
20260506152026 78 156 0.9 4.3 0.00 0.00 0.00 97 1010.7
20260506151548 78 148 0.9 4.3 0.00 0.00 0.00 97 1010.7
20260506151030 78 152 0.9 6.1 0.00 0.00 0.00 96 1010.5
20260506150533 78 156 1.7 6.1 0.00 0.00 0.00 96 1010.6
20260506150043 78 153 2.6 5.2 0.00 0.00 0.00 97 1010.3
20260506145526 78 162 1.7 5.2 0.00 0.00 0.00 97 1010.3
20260506145029 78 157 0.9 4.3 0.00 0.00 0.00 97 1010.2
20260506144544 78 167 1.7 5.2 0.00 0.00 0.00 97 1010.2
20260506144028 78 165 0.9 5.2 0.00 0.00 0.00 97 1010.2
20260506143528 78 169 1.7 5.2 0.00 0.00 0.00 97 1010.3
20260506143043 77 163 1.7 3.5 0.00 0.00 0.00 97 1010.2
20260506142526 77 140 0.0 2.6 0.00 0.00 0.00 97 1010.2
20260506142026 77 140 0.9 2.6 0.00 0.00 0.00 97 1010.2
20260506141542 77 138 0.0 2.6 0.00 0.00 0.00 97 1010.4
20260506141029 77 138 0.9 2.6 0.00 0.00 0.00 97 1010.5
20260506140526 77 138 1.7 3.5 0.00 0.00 0.00 97 1010.6
20260506140043 77 159 0.9 3.5 0.00 0.00 0.00 97 1010.5
20260506135526 77 159 0.9 4.3 0.00 0.00 0.00 97 1010.5
20260506135025 77 159 1.7 4.3 0.00 0.00 0.00 97 1010.5
20260506134542 77 156 0.9 4.3 0.00 0.00 0.00 97 1010.4
20260506134025 77 151 0.9 1.7 0.00 0.00 0.00 98 1010.5
20260506133528 77 0 0.0 0.0 0.00 0.00 0.00 98 1010.6
20260506133041 77 0 0.0 1.7 0.00 0.00 0.00 98 1010.5
20260506132528 77 0 0.0 1.7 0.00 0.00 0.00 98 1010.7
20260506132029 77 0 0.0 1.7 0.00 0.00 0.00 98 1010.6
20260506131550 77 153 0.0 4.3 0.00 0.00 0.00 98 1010.6
20260506131026 77 153 0.0 4.3 0.00 0.00 0.00 98 1010.7
20260506130526 77 153 1.7 3.5 0.00 0.00 0.00 98 1010.7
20260506130057 76 157 0.9 3.5 0.00 0.00 0.00 98 1010.5
20260506125530 76 0 0.0 1.7 0.00 0.00 0.00 98 1010.5
20260506125029 76 0 0.9 2.6 0.00 0.00 0.00 98 1010.4
20260506124554 76 157 0.9 3.5 0.00 0.00 0.00 98 1010.3
20260506124026 76 157 1.7 3.5 0.00 0.00 0.00 98 1010.4
20260506123526 76 166 1.7 4.3 0.00 0.00 0.00 98 1010.4
20260506123045 76 148 1.7 5.2 0.00 0.00 0.00 98 1010.3
20260506122526 76 161 1.7 5.2 0.00 0.00 0.00 98 1010.3
20260506122026 76 155 2.6 4.3 0.00 0.00 0.00 98 1010.2
20260506121545 76 161 0.9 3.5 0.00 0.00 0.00 98 1010.2
20260506121028 76 167 0.0 3.5 0.00 0.00 0.00 98 1010.1
20260506120529 76 169 1.7 3.5 0.00 0.00 0.00 98 1010.0
20260506120041 76 149 0.0 2.6 0.00 0.00 0.00 98 1009.9
20260506115530 76 0 0.9 2.6 0.00 0.00 0.00 98 1009.8
20260506115028 76 149 0.9 2.6 0.00 0.00 0.00 98 1009.8
20260506114542 76 147 1.7 4.3 0.00 0.00 0.00 98 1009.7
20260506114030 76 144 0.9 4.3 0.00 0.00 0.00 98 1009.6
20260506113530 76 0 0.0 1.7 0.00 0.00 0.00 98 1009.6
20260506113050 76 162 0.9 1.7 0.00 0.00 0.00 98 1009.5
20260506112529 76 0 0.0 2.6 0.00 0.00 0.00 98 1009.5
20260506112029 76 179 0.9 2.6 0.00 0.00 0.00 99 1009.5
20260506111543 76 178 0.9 2.6 0.00 0.00 0.00 99 1009.5
20260506111029 76 0 0.0 3.5 0.00 0.00 0.00 99 1009.4
20260506110531 76 164 0.9 3.5 0.00 0.00 0.00 99 1009.6
20260506110053 76 169 0.0 1.7 0.00 0.00 0.00 98 1009.5
20260506105530 75 0 0.0 1.7 0.00 0.00 0.00 98 1009.6
20260506105031 75 169 0.0 1.7 0.00 0.00 0.00 98 1009.5
20260506104553 75 0 0.0 1.7 0.00 0.00 0.00 98 1009.4
20260506104028 75 0 0.0 1.7 0.00 0.00 0.00 98 1009.4
20260506103529 75 169 0.9 2.6 0.00 0.00 0.00 98 1009.4
20260506103055 75 169 0.9 4.3 0.00 0.00 0.00 98 1009.5
20260506102529 76 170 0.9 4.3 0.00 0.00 0.00 98 1009.4
20260506102029 76 157 0.9 2.6 0.00 0.00 0.00 98 1009.3
20260506101554 75 157 1.7 2.6 0.00 0.00 0.00 98 1009.2
20260506101030 75 0 0.0 1.7 0.00 0.00 0.00 98 1009.3
20260506100530 75 155 0.0 1.7 0.00 0.00 0.00 98 1009.2
20260506095529 75 0 0.0 3.5 0.00 0.00 0.00 98 1009.0
20260506095032 75 163 0.0 3.5 0.00 0.00 0.00 98 1009.0
20260506094543 75 167 0.0 1.7 0.00 0.00 0.00 97 1009.0
20260506094029 75 0 0.0 1.7 0.00 0.00 0.00 97 1009.1
20260506093529 75 171 0.0 1.7 0.00 0.00 0.00 97 1009.1
20260506093051 76 175 0.0 0.0 0.00 0.00 0.00 97 1009.2
20260506092530 76 0 0.0 0.9 0.00 0.00 0.00 97 1009.1
20260506092029 76 0 0.0 1.7 0.00 0.00 0.00 97 1009.1
20260506091548 76 0 0.9 2.6 0.00 0.00 0.00 97 1009.2
20260506091037 76 175 0.9 2.6 0.00 0.00 0.00 97 1009.2
20260506090528 76 185 0.9 3.5 0.00 0.00 0.00 97 1009.2
20260506090046 76 159 0.0 3.5 0.00 0.00 0.00 97 1009.2
20260506085531 76 0 0.0 3.5 0.00 0.00 0.00 97 1009.3
20260506085029 76 0 0.9 3.5 0.00 0.00 0.00 97 1009.3
20260506084605 76 157 0.9 4.3 0.00 0.00 0.00 97 1009.3
20260506084029 76 150 1.7 4.3 0.00 0.00 0.00 97 1009.3
20260506083529 76 150 1.7 3.5 0.00 0.00 0.00 97 1009.4
20260506083048 76 152 0.9 3.5 0.00 0.00 0.00 97 1009.5
20260506082533 76 150 0.9 3.5 0.00 0.00 0.00 97 1009.5
20260506082033 76 150 1.7 4.3 0.00 0.00 0.00 97 1009.6
20260506081547 76 152 2.6 4.3 0.00 0.00 0.00 97 1009.7
20260506081030 76 153 2.6 4.3 0.00 0.00 0.00 97 1009.7
20260506080530 76 142 0.9 2.6 0.00 0.00 0.00 97 1009.6
20260506073046 76 145 0.9 1.7 0.00 0.00 0.00 97 1010.0
20260506072528 76 0 0.9 1.7 0.00 0.00 0.00 97 1010.1
20260506072028 76 149 0.9 4.3 0.00 0.00 0.00 97 1010.1
20260506071550 76 148 1.7 4.3 0.00 0.00 0.00 97 1010.2
20260506071029 76 150 1.7 4.3 0.00 0.00 0.00 97 1010.2
20260506070529 76 155 1.7 5.2 0.00 0.00 0.00 97 1010.2
20260506062028 76 152 3.5 6.1 0.00 0.00 0.00 96 1010.1
20260506061544 76 155 3.5 8.7 0.00 0.00 0.00 96 1010.1
20260506061029 76 140 2.6 8.7 0.00 0.00 0.00 96 1010.0
20260506060529 76 148 1.7 6.1 0.00 0.00 0.00 96 1010.2
20260506051028 76 130 1.7 6.1 0.00 0.00 0.00 96 1010.2
20260506050529 76 150 2.6 6.1 0.00 0.00 0.00 96 1010.2
20260506045030 76 159 1.7 7.0 0.00 0.00 0.00 96 1010.2
20260506044636 76 168 2.6 7.0 0.00 0.00 0.00 96 1010.0
20260506044031 76 196 4.3 7.0 0.00 0.00 0.00 96 1010.0
20260506043529 76 163 1.7 5.2 0.00 0.00 0.00 95 1010.1
20260506043041 76 160 2.6 6.1 0.00 0.00 0.00 95 1010.2
20260506042529 76 165 2.6 6.1 0.00 0.00 0.00 95 1010.2
20260506042028 76 153 2.6 8.7 0.00 0.00 0.00 95 1010.1
20260506041557 76 161 3.5 8.7 0.00 0.00 0.00 95 1010.1
20260506041030 76 155 5.2 8.7 0.00 0.00 0.00 95 1010.0
20260506040528 76 167 4.3 7.8 0.00 0.00 0.00 95 1010.1
20260506040046 76 167 2.6 5.2 0.00 0.00 0.00 95 1010.1
20260506035530 76 155 2.6 7.0 0.00 0.00 0.00 95 1010.1
20260506035029 76 157 3.5 7.0 0.00 0.00 0.00 95 1010.1
20260506034620 76 159 3.5 6.1 0.00 0.00 0.00 95 1010.1
20260506034029 76 148 3.5 10.4 0.00 0.00 0.00 95 1010.1
20260506033528 76 165 1.7 10.4 0.00 0.00 0.00 95 1010.1
20260506033041 76 137 3.5 9.6 0.00 0.00 0.00 95 1010.0
20260506032528 76 168 1.7 7.0 0.00 0.00 0.00 95 1010.0
20260506032028 77 157 2.6 7.8 0.00 0.00 0.00 95 1009.9
20260506031542 77 163 3.5 7.8 0.00 0.00 0.00 95 1009.9
20260506031030 76 128 3.5 9.6 0.00 0.00 0.00 95 1009.8
20260506030528 77 177 4.3 9.6 0.00 0.00 0.00 95 1009.8
20260506030046 76 163 4.3 8.7 0.00 0.00 0.00 95 1009.8
20260506025533 76 159 3.5 7.8 0.00 0.00 0.00 95 1009.9
20260506025026 76 152 3.5 7.0 0.00 0.00 0.00 95 1009.8
20260506024546 76 155 1.7 10.4 0.00 0.00 0.00 95 1009.7
20260506024029 76 148 4.3 10.4 0.00 0.00 0.00 95 1009.6
20260506023526 76 158 2.6 6.1 0.00 0.00 0.00 95 1009.4
20260506023103 76 157 2.6 6.1 0.00 0.00 0.00 96 1009.4
20260506022527 76 150 1.7 7.0 0.00 0.00 0.00 96 1009.4
20260506022029 76 155 2.6 7.0 0.00 0.00 0.00 96 1009.2
20260506021541 76 147 3.5 7.0 0.00 0.00 0.00 96 1009.2
20260506021029 76 161 1.7 4.3 0.00 0.00 0.00 96 1009.2
20260506020528 76 161 1.7 6.1 0.00 0.00 0.00 96 1009.2
20260506020045 76 159 2.6 5.2 0.00 0.00 0.00 95 1009.0
20260506015528 76 172 2.6 5.2 0.00 0.00 0.00 95 1009.0
20260506015031 76 167 2.6 5.2 0.00 0.00 0.00 95 1009.1
20260506014540 76 167 2.6 5.2 0.00 0.00 0.00 95 1009.0
20260506014028 76 161 1.7 6.1 0.00 0.00 0.00 95 1009.0
20260506013528 76 181 1.7 7.0 0.00 0.00 0.00 95 1008.8
20260506013049 76 159 2.6 8.7 0.00 0.00 0.00 94 1008.7
20260506012529 76 159 4.3 8.7 0.00 0.00 0.00 94 1008.7
20260506012028 76 181 3.5 8.7 0.00 0.00 0.00 94 1008.6
20260506011544 77 143 1.7 8.7 0.00 0.00 0.00 94 1008.4
20260506011029 77 149 4.3 7.8 0.00 0.00 0.00 94 1008.4
20260506010525 77 163 2.6 9.6 0.00 0.00 0.00 93 1008.5
20260506010054 77 156 4.3 9.6 0.00 0.00 0.00 93 1008.3
20260506005526 77 153 3.5 9.6 0.00 0.00 0.00 93 1008.3
20260506005028 77 169 3.5 11.3 0.00 0.00 0.00 92 1008.3
20260506004600 77 145 5.2 11.3 0.00 0.00 0.00 92 1008.1
20260506004025 77 160 2.6 8.7 0.00 0.00 0.00 92 1008.2
20260506003528 78 180 5.2 8.7 0.00 0.00 0.00 92 1008.1
20260506003051 78 161 4.3 9.6 0.00 0.00 0.00 92 1008.1
20260506002529 78 143 4.3 9.6 0.00 0.00 0.00 92 1008.2
20260506002029 78 163 3.5 9.6 0.00 0.00 0.00 92 1008.3
20260506001542 78 142 1.7 9.6 0.00 0.00 0.00 91 1008.3
20260506001028 78 175 1.7 7.0 0.00 0.00 0.00 91 1008.4
20260506000529 78 159 2.6 10.4 0.00 0.00 0.00 91 1008.3
20260506000047 78 154 4.3 11.3 0.00 0.00 0.00 91 1008.2
20260505235529 78 166 5.2 11.3 0.00 0.00 0.00 91 1008.2
20260505235029 78 155 3.5 10.4 0.00 0.00 0.00 91 1008.2
20260505234604 78 155 4.3 11.3 0.00 0.00 0.00 91 1008.3
20260505234048 78 163 4.3 13.0 0.00 0.00 0.00 91 1008.2
20260505233532 78 188 4.3 13.0 0.00 0.00 0.00 90 1008.3
20260505233042 78 159 3.5 12.2 0.00 0.00 0.00 90 1008.3
20260505232527 78 188 2.6 9.6 0.00 0.00 0.00 90 1008.3
20260505232030 78 175 4.3 12.2 0.00 0.00 0.00 90 1008.3
20260505231545 78 171 4.3 13.0 0.00 0.00 0.00 90 1008.2
20260505231027 78 165 4.3 13.0 0.00 0.00 0.00 89 1008.3
20260505230528 79 204 6.1 12.2 0.00 0.00 0.00 89 1008.4
20260505230045 79 163 5.2 13.9 0.00 0.00 0.00 89 1008.3
20260505225529 79 193 3.5 13.9 0.00 0.00 0.00 88 1008.3
20260505225033 79 157 4.3 13.9 0.00 0.00 0.00 88 1008.3
20260505224542 79 140 5.2 10.4 0.00 0.00 0.00 87 1008.2
20260505224027 79 153 3.5 7.8 0.00 0.00 0.00 87 1008.4
20260505223527 79 188 1.7 8.7 0.00 0.00 0.00 87 1008.5
20260505223047 80 171 4.3 8.7 0.00 0.00 0.00 87 1008.5
20260505222527 80 166 2.6 8.7 0.00 0.00 0.00 87 1008.5
20260505222027 80 144 1.7 9.6 0.00 0.00 0.00 88 1008.5
20260505221543 79 200 5.2 10.4 0.00 0.00 0.00 87 1008.5
20260505221026 79 169 4.3 10.4 0.00 0.00 0.00 87 1008.5
20260505220526 79 153 6.1 10.4 0.00 0.00 0.00 88 1008.5
20260505220059 79 211 0.9 7.0 0.00 0.00 0.00 89 1008.6
20260505215528 79 176 3.5 6.1 0.00 0.00 0.00 89 1008.7
20260505215027 79 182 1.7 8.7 0.00 0.00 0.00 89 1008.7
20260505214541 79 175 3.5 8.7 0.00 0.00 0.00 89 1008.8
20260505214027 79 150 3.5 8.7 0.00 0.00 0.00 89 1008.8
20260505213527 79 173 2.6 7.0 0.00 0.00 0.00 89 1008.8